Time,TemperatureF,DewpointF,PressureIn,WindDirection,WindDirectionDegrees,WindSpeedMPH,WindSpeedGustMPH,Humidity,HourlyPrecipIn,Conditions,Clouds,dailyrainin,SoftwareType,DateUTC
2013-09-14 00:02:00,53.1,46.4,30.08,North,355,0.0,0.0,78,0.00,,,0.00,meteohub,2013-09-14 05:02:00,
2013-09-14 00:07:00,52.9,46.2,30.08,North,355,0.0,0.0,78,0.00,,,0.00,meteohub,2013-09-14 05:07:00,
2013-09-14 00:12:00,52.9,46.2,30.08,North,355,0.0,0.0,78,0.00,,,0.00,meteohub,2013-09-14 05:12:00,
2013-09-14 00:17:00,52.9,46.2,30.08,North,355,0.0,0.0,78,0.00,,,0.00,meteohub,2013-09-14 05:17:00,
2013-09-14 00:22:00,52.7,46.0,30.07,North,355,0.0,0.0,78,0.00,,,0.00,meteohub,2013-09-14 05:22:00,
2013-09-14 00:27:00,52.5,45.9,30.07,North,355,0.0,0.0,78,0.00,,,0.00,meteohub,2013-09-14 05:27:00,
2013-09-14 00:32:00,52.5,45.9,30.07,North,355,0.0,0.0,78,0.00,,,0.00,meteohub,2013-09-14 05:32:00,
2013-09-14 00:37:00,52.3,45.7,30.07,North,355,0.0,0.0,78,0.00,,,0.00,meteohub,2013-09-14 05:37:00,
2013-09-14 00:42:00,52.3,46.0,30.07,North,355,0.0,0.0,79,0.00,,,0.00,meteohub,2013-09-14 05:42:00,
2013-09-14 00:47:00,52.3,46.0,30.07,North,355,0.0,0.0,79,0.00,,,0.00,meteohub,2013-09-14 05:47:00,
2013-09-14 00:52:00,52.2,45.9,30.07,North,355,0.0,0.0,79,0.00,,,0.00,meteohub,2013-09-14 05:52:00,
2013-09-14 00:57:00,52.2,45.9,30.07,North,355,0.0,0.0,79,0.00,,,0.00,meteohub,2013-09-14 05:57:00,
2013-09-14 01:02:00,52.2,45.9,30.07,North,355,0.0,0.0,79,0.00,,,0.00,meteohub,2013-09-14 06:02:00,
2013-09-14 01:07:00,52.2,45.9,30.07,North,355,0.0,0.0,79,0.00,,,0.00,meteohub,2013-09-14 06:07:00,
2013-09-14 01:12:00,52.0,45.7,30.06,North,355,0.0,0.0,79,0.00,,,0.00,meteohub,2013-09-14 06:12:00,
2013-09-14 01:17:00,52.0,45.7,30.06,North,355,0.0,0.0,79,0.00,,,0.00,meteohub,2013-09-14 06:17:00,
2013-09-14 01:22:00,51.8,45.5,30.06,North,355,0.0,0.0,79,0.00,,,0.00,meteohub,2013-09-14 06:22:00,
2013-09-14 01:27:00,51.6,45.7,30.06,North,355,0.0,0.0,80,0.00,,,0.00,meteohub,2013-09-14 06:27:00,
2013-09-14 01:32:00,51.6,45.7,30.06,North,355,0.0,0.0,80,0.00,,,0.00,meteohub,2013-09-14 06:32:00,
2013-09-14 01:37:00,51.6,45.7,30.06,North,355,0.0,0.0,80,0.00,,,0.00,meteohub,2013-09-14 06:37:00,
2013-09-14 01:42:00,51.4,45.5,30.06,North,355,0.0,0.0,80,0.00,,,0.00,meteohub,2013-09-14 06:42:00,
2013-09-14 01:47:00,51.4,45.5,30.06,North,355,0.0,0.0,80,0.00,,,0.00,meteohub,2013-09-14 06:47:00,
2013-09-14 01:52:00,51.4,45.5,30.06,North,355,0.0,0.0,80,0.00,,,0.00,meteohub,2013-09-14 06:52:00,
2013-09-14 01:57:00,51.4,45.5,30.06,North,355,0.0,0.0,80,0.00,,,0.00,meteohub,2013-09-14 06:57:00,
2013-09-14 02:02:00,51.4,45.5,30.06,North,355,0.0,0.0,80,0.00,,,0.00,meteohub,2013-09-14 07:02:00,
2013-09-14 02:07:00,51.4,45.5,30.06,North,355,0.0,0.0,80,0.00,,,0.00,meteohub,2013-09-14 07:07:00,
2013-09-14 02:12:00,51.3,45.3,30.06,North,355,0.0,0.0,80,0.00,,,0.00,meteohub,2013-09-14 07:12:00,
2013-09-14 02:17:00,51.3,45.3,30.06,North,355,0.0,0.0,80,0.00,,,0.00,meteohub,2013-09-14 07:17:00,
2013-09-14 02:22:00,51.3,45.3,30.06,North,355,0.0,0.0,80,0.00,,,0.00,meteohub,2013-09-14 07:22:00,
2013-09-14 02:27:00,51.3,45.3,30.06,North,355,0.0,0.0,80,0.00,,,0.00,meteohub,2013-09-14 07:27:00,
2013-09-14 02:32:00,51.3,45.3,30.06,North,355,0.0,0.0,80,0.00,,,0.00,meteohub,2013-09-14 07:32:00,
2013-09-14 02:37:00,51.3,45.3,30.06,North,0,0.0,0.0,80,0.00,,,0.00,meteohub,2013-09-14 07:37:00,
2013-09-14 02:42:00,51.4,45.5,30.06,North,0,0.0,1.0,80,0.00,,,0.00,meteohub,2013-09-14 07:42:00,
2013-09-14 02:47:00,51.4,45.5,30.06,North,0,0.0,1.0,80,0.00,,,0.00,meteohub,2013-09-14 07:47:00,
2013-09-14 02:52:00,51.4,45.5,30.06,North,0,0.0,0.0,80,0.00,,,0.00,meteohub,2013-09-14 07:52:00,
2013-09-14 02:57:00,51.4,45.1,30.06,North,0,0.0,0.0,79,0.00,,,0.00,meteohub,2013-09-14 07:57:00,
2013-09-14 03:02:00,51.4,45.5,30.06,North,0,0.0,0.0,80,0.00,,,0.00,meteohub,2013-09-14 08:02:00,
2013-09-14 03:07:00,51.4,45.1,30.06,North,0,0.0,1.0,79,0.00,,,0.00,meteohub,2013-09-14 08:07:00,
2013-09-14 03:12:00,51.4,45.1,30.06,North,0,0.0,1.0,79,0.00,,,0.00,meteohub,2013-09-14 08:12:00,
2013-09-14 03:17:00,51.6,45.3,30.06,North,0,0.0,0.0,79,0.00,,,0.00,meteohub,2013-09-14 08:17:00,
2013-09-14 03:22:00,51.6,45.3,30.06,North,0,0.0,0.0,79,0.00,,,0.00,meteohub,2013-09-14 08:22:00,
2013-09-14 03:27:00,51.6,45.3,30.05,North,0,0.0,0.0,79,0.00,,,0.00,meteohub,2013-09-14 08:27:00,
2013-09-14 03:32:00,51.6,45.3,30.05,North,0,0.0,0.0,79,0.00,,,0.00,meteohub,2013-09-14 08:32:00,
2013-09-14 03:37:00,51.6,45.0,30.05,North,0,0.0,0.0,78,0.00,,,0.00,meteohub,2013-09-14 08:37:00,
2013-09-14 03:42:00,51.6,45.0,30.05,North,0,0.0,0.0,78,0.00,,,0.00,meteohub,2013-09-14 08:42:00,
2013-09-14 03:47:00,51.6,45.0,30.05,North,0,0.0,0.0,78,0.00,,,0.00,meteohub,2013-09-14 08:47:00,
2013-09-14 03:52:00,51.6,45.0,30.05,North,0,0.0,0.0,78,0.00,,,0.00,meteohub,2013-09-14 08:52:00,
2013-09-14 03:57:00,51.6,45.0,30.05,North,0,0.0,0.0,78,0.00,,,0.00,meteohub,2013-09-14 08:57:00,
2013-09-14 04:02:00,51.6,45.0,30.05,North,0,0.0,0.0,78,0.00,,,0.00,meteohub,2013-09-14 09:02:00,
2013-09-14 04:07:00,51.6,45.0,30.05,North,0,0.0,0.0,78,0.00,,,0.00,meteohub,2013-09-14 09:07:00,
2013-09-14 04:12:00,51.6,45.0,30.05,North,0,0.0,0.0,78,0.00,,,0.00,meteohub,2013-09-14 09:12:00,
2013-09-14 04:17:00,51.6,45.0,30.05,North,0,0.0,0.0,78,0.00,,,0.00,meteohub,2013-09-14 09:17:00,
2013-09-14 04:22:00,51.6,45.0,30.05,NNW,344,0.0,0.0,78,0.00,,,0.00,meteohub,2013-09-14 09:22:00,
2013-09-14 04:27:00,51.6,45.0,30.05,NNW,344,0.0,1.0,78,0.00,,,0.00,meteohub,2013-09-14 09:27:00,
2013-09-14 04:32:00,51.6,45.0,30.04,NNW,344,0.0,1.0,78,0.00,,,0.00,meteohub,2013-09-14 09:32:00,
2013-09-14 04:37:00,51.6,45.0,30.05,NNW,344,0.0,1.0,78,0.00,,,0.00,meteohub,2013-09-14 09:37:00,
2013-09-14 04:42:00,51.6,45.0,30.05,NNW,344,0.0,0.0,78,0.00,,,0.00,meteohub,2013-09-14 09:42:00,
2013-09-14 04:47:00,51.6,45.0,30.05,NNW,344,0.0,0.0,78,0.00,,,0.00,meteohub,2013-09-14 09:47:00,
2013-09-14 04:52:00,51.6,45.0,30.05,NNW,342,0.0,4.0,78,0.00,,,0.00,meteohub,2013-09-14 09:52:00,
2013-09-14 04:57:00,51.6,45.0,30.05,NNW,338,0.0,4.0,78,0.00,,,0.00,meteohub,2013-09-14 09:57:00,
2013-09-14 05:02:00,51.6,45.0,30.05,NNW,342,0.0,4.0,78,0.00,,,0.00,meteohub,2013-09-14 10:02:00,
2013-09-14 05:07:00,51.8,44.8,30.05,NNW,342,0.0,4.0,77,0.00,,,0.00,meteohub,2013-09-14 10:07:00,
2013-09-14 05:12:00,51.8,44.8,30.05,NNW,340,3.0,3.0,77,0.00,,,0.00,meteohub,2013-09-14 10:12:00,
2013-09-14 05:17:00,52.0,45.0,30.05,NNW,348,0.0,3.0,77,0.00,,,0.00,meteohub,2013-09-14 10:17:00,
2013-09-14 05:22:00,52.0,45.0,30.04,WSW,243,0.0,4.0,77,0.00,,,0.00,meteohub,2013-09-14 10:22:00,
2013-09-14 05:27:00,52.0,45.0,30.04,WSW,241,0.0,4.0,77,0.00,,,0.00,meteohub,2013-09-14 10:27:00,
2013-09-14 05:32:00,52.0,45.0,30.04,WSW,241,0.0,4.0,77,0.00,,,0.00,meteohub,2013-09-14 10:32:00,
2013-09-14 05:37:00,52.0,45.0,30.04,WSW,240,0.0,2.0,77,0.00,,,0.00,meteohub,2013-09-14 10:37:00,
2013-09-14 05:42:00,52.0,45.0,30.05,WSW,239,0.0,1.0,77,0.00,,,0.00,meteohub,2013-09-14 10:42:00,
2013-09-14 05:47:00,52.0,45.0,30.05,WSW,238,0.0,1.0,77,0.00,,,0.00,meteohub,2013-09-14 10:47:00,
2013-09-14 05:52:00,51.8,44.8,30.04,WSW,238,0.0,1.0,77,0.00,,,0.00,meteohub,2013-09-14 10:52:00,
2013-09-14 05:57:00,51.8,44.8,30.04,WSW,239,0.0,2.0,77,0.00,,,0.00,meteohub,2013-09-14 10:57:00,
2013-09-14 06:02:00,51.8,45.1,30.05,WSW,241,0.0,2.0,78,0.00,,,0.00,meteohub,2013-09-14 11:02:00,
2013-09-14 06:07:00,51.8,45.1,30.05,WSW,240,0.0,4.0,78,0.00,,,0.00,meteohub,2013-09-14 11:07:00,
2013-09-14 06:12:00,51.6,45.0,30.05,WSW,240,2.0,4.0,78,0.00,,,0.00,meteohub,2013-09-14 11:12:00,
2013-09-14 06:17:00,51.6,45.0,30.05,West,264,4.0,4.0,78,0.00,,,0.00,meteohub,2013-09-14 11:17:00,
2013-09-14 06:22:00,51.8,45.1,30.05,West,277,3.0,10.0,78,0.00,,,0.00,meteohub,2013-09-14 11:22:00,
2013-09-14 06:27:00,51.8,45.1,30.05,WSW,244,0.0,10.0,78,0.00,,,0.00,meteohub,2013-09-14 11:27:00,
2013-09-14 06:32:00,51.8,45.1,30.05,WSW,243,1.0,10.0,78,0.00,,,0.00,meteohub,2013-09-14 11:32:00,
2013-09-14 06:37:00,51.8,45.1,30.05,WSW,253,0.0,4.0,78,0.00,,,0.00,meteohub,2013-09-14 11:37:00,
2013-09-14 06:42:00,51.8,45.1,30.05,WSW,244,0.0,3.0,78,0.00,,,0.00,meteohub,2013-09-14 11:42:00,
2013-09-14 06:47:00,52.0,45.7,30.05,WSW,245,0.0,4.0,79,0.00,,,0.00,meteohub,2013-09-14 11:47:00,
2013-09-14 06:52:00,52.0,45.7,30.05,WSW,250,4.0,4.0,79,0.00,,,0.00,meteohub,2013-09-14 11:52:00,
2013-09-14 06:57:00,52.0,45.3,30.05,WSW,244,0.0,4.0,78,0.00,,,0.00,meteohub,2013-09-14 11:57:00,
2013-09-14 07:02:00,52.0,45.3,30.05,WSW,243,0.0,4.0,78,0.00,,,0.00,meteohub,2013-09-14 12:02:00,
2013-09-14 07:07:00,52.0,45.3,30.05,WSW,240,1.0,4.0,78,0.00,,,0.00,meteohub,2013-09-14 12:07:00,
2013-09-14 07:12:00,52.2,45.5,30.05,WSW,242,0.0,3.0,78,0.00,,,0.00,meteohub,2013-09-14 12:12:00,
2013-09-14 07:17:00,52.2,45.5,30.05,WSW,253,0.0,3.0,78,0.00,,,0.00,meteohub,2013-09-14 12:17:00,
2013-09-14 07:22:00,52.2,45.5,30.05,WSW,245,0.0,4.0,78,0.00,,,0.00,meteohub,2013-09-14 12:22:00,
2013-09-14 07:27:00,52.2,45.5,30.05,WSW,246,0.0,4.0,78,0.00,,,0.00,meteohub,2013-09-14 12:27:00,
2013-09-14 07:32:00,52.2,45.5,30.05,WSW,246,0.0,4.0,78,0.00,,,0.00,meteohub,2013-09-14 12:32:00,
2013-09-14 07:37:00,52.3,45.7,30.05,WSW,247,0.0,4.0,78,0.00,,,0.00,meteohub,2013-09-14 12:37:00,
2013-09-14 07:42:00,52.3,45.7,30.05,WSW,248,0.0,4.0,78,0.00,,,0.00,meteohub,2013-09-14 12:42:00,
2013-09-14 07:47:00,52.3,45.7,30.05,West,281,1.0,4.0,78,0.00,,,0.00,meteohub,2013-09-14 12:47:00,
2013-09-14 07:52:00,52.5,45.9,30.05,WSW,250,1.0,5.0,78,0.00,,,0.00,meteohub,2013-09-14 12:52:00,
2013-09-14 07:57:00,52.5,45.9,30.05,WSW,246,0.0,6.0,78,0.00,,,0.00,meteohub,2013-09-14 12:57:00,
2013-09-14 08:02:00,52.9,46.2,30.05,WSW,245,0.0,6.0,78,0.00,,,0.00,meteohub,2013-09-14 13:02:00,
2013-09-14 08:07:00,53.1,46.4,30.05,WSW,245,0.0,4.0,78,0.00,,,0.00,meteohub,2013-09-14 13:07:00,
2013-09-14 08:12:00,53.2,46.2,30.04,WSW,254,0.0,4.0,77,0.00,,,0.00,meteohub,2013-09-14 13:12:00,
2013-09-14 08:17:00,53.4,46.4,30.04,WSW,246,3.0,4.0,77,0.00,,,0.00,meteohub,2013-09-14 13:17:00,
2013-09-14 08:22:00,53.8,46.8,30.04,WSW,245,3.0,7.0,77,0.00,,,0.00,meteohub,2013-09-14 13:22:00,
2013-09-14 08:27:00,54.0,46.9,30.04,WSW,241,0.0,7.0,77,0.00,,,0.00,meteohub,2013-09-14 13:27:00,
2013-09-14 08:32:00,54.1,47.1,30.04,WSW,249,0.0,5.0,77,0.00,,,0.00,meteohub,2013-09-14 13:32:00,
2013-09-14 08:37:00,54.3,46.9,30.04,WSW,246,3.0,5.0,76,0.00,,,0.00,meteohub,2013-09-14 13:37:00,
2013-09-14 08:42:00,54.7,47.3,30.04,WNW,283,4.0,5.0,76,0.00,,,0.00,meteohub,2013-09-14 13:42:00,
2013-09-14 08:47:00,54.9,47.1,30.04,West,266,0.0,5.0,75,0.00,,,0.00,meteohub,2013-09-14 13:47:00,
2013-09-14 08:52:00,55.2,47.5,30.04,WSW,254,0.0,5.0,75,0.00,,,0.00,meteohub,2013-09-14 13:52:00,
2013-09-14 08:57:00,55.6,47.5,30.04,WSW,249,0.0,4.0,74,0.00,,,0.00,meteohub,2013-09-14 13:57:00,
2013-09-14 09:02:00,55.8,47.3,30.04,WSW,246,0.0,3.0,73,0.00,,,0.00,meteohub,2013-09-14 14:02:00,
2013-09-14 09:07:00,56.1,47.7,30.04,WSW,246,0.0,2.0,73,0.00,,,0.00,meteohub,2013-09-14 14:07:00,
2013-09-14 09:12:00,56.5,48.0,30.04,WSW,239,0.0,2.0,73,0.00,,,0.00,meteohub,2013-09-14 14:12:00,
2013-09-14 09:17:00,56.8,48.2,30.04,WSW,244,0.0,1.0,73,0.00,,,0.00,meteohub,2013-09-14 14:17:00,
2013-09-14 09:22:00,57.2,48.2,30.03,WSW,245,0.0,4.0,72,0.00,,,0.00,meteohub,2013-09-14 14:22:00,
2013-09-14 09:27:00,57.6,48.2,30.03,WSW,246,0.0,4.0,71,0.00,,,0.00,meteohub,2013-09-14 14:27:00,
2013-09-14 09:32:00,57.9,48.2,30.03,WSW,244,0.0,4.0,70,0.00,,,0.00,meteohub,2013-09-14 14:32:00,
2013-09-14 09:37:00,58.3,48.6,30.03,WSW,244,0.0,4.0,70,0.00,,,0.00,meteohub,2013-09-14 14:37:00,
2013-09-14 09:42:00,58.6,48.6,30.03,WSW,255,3.0,4.0,69,0.00,,,0.00,meteohub,2013-09-14 14:42:00,
2013-09-14 09:47:00,59.0,48.4,30.03,WSW,246,0.0,5.0,68,0.00,,,0.00,meteohub,2013-09-14 14:47:00,
2013-09-14 09:52:00,59.5,48.2,30.03,WSW,247,0.0,5.0,66,0.00,,,0.00,meteohub,2013-09-14 14:52:00,
2013-09-14 09:58:00,60.1,48.2,30.02,SW,234,0.0,5.0,65,0.00,,,0.00,meteohub,2013-09-14 14:58:00,
2013-09-14 10:03:00,60.6,48.7,30.02,WSW,249,0.0,6.0,65,0.00,,,0.00,meteohub,2013-09-14 15:03:00,
2013-09-14 10:08:00,61.2,48.9,30.01,WSW,250,0.0,6.0,64,0.00,,,0.00,meteohub,2013-09-14 15:08:00,
2013-09-14 10:13:00,61.5,48.7,30.01,WSW,254,0.0,6.0,63,0.00,,,0.00,meteohub,2013-09-14 15:13:00,
2013-09-14 10:18:00,62.1,48.9,30.01,WSW,246,0.0,5.0,62,0.00,,,0.00,meteohub,2013-09-14 15:18:00,
2013-09-14 10:23:00,62.6,48.9,30.01,WSW,258,2.0,5.0,61,0.00,,,0.00,meteohub,2013-09-14 15:23:00,
2013-09-14 10:28:00,63.1,49.1,30.01,West,259,0.0,10.0,60,0.00,,,0.00,meteohub,2013-09-14 15:28:00,
2013-09-14 10:33:00,63.5,49.3,30.01,WSW,246,0.0,10.0,60,0.00,,,0.00,meteohub,2013-09-14 15:33:00,
2013-09-14 10:38:00,64.0,49.5,30.01,West,272,0.0,10.0,59,0.00,,,0.00,meteohub,2013-09-14 15:38:00,
2013-09-14 10:43:00,64.4,49.8,30.01,WSW,248,1.0,7.0,59,0.00,,,0.00,meteohub,2013-09-14 15:43:00,
2013-09-14 10:48:00,64.8,49.6,30.00,West,261,0.0,5.0,58,0.00,,,0.00,meteohub,2013-09-14 15:48:00,
2013-09-14 10:53:00,65.1,49.5,30.00,West,263,0.0,5.0,57,0.00,,,0.00,meteohub,2013-09-14 15:53:00,
2013-09-14 10:58:00,65.7,50.0,30.00,WSW,245,2.0,6.0,57,0.00,,,0.00,meteohub,2013-09-14 15:58:00,
2013-09-14 11:03:00,66.0,49.5,30.00,NNW,343,0.0,6.0,55,0.00,,,0.00,meteohub,2013-09-14 16:03:00,
2013-09-14 11:08:00,66.4,49.6,30.00,WSW,245,0.0,6.0,55,0.00,,,0.00,meteohub,2013-09-14 16:08:00,
2013-09-14 11:14:00,66.6,49.8,30.00,West,259,0.0,6.0,55,0.00,,,0.00,meteohub,2013-09-14 16:14:00,
2013-09-14 11:19:00,66.7,50.5,30.00,WSW,248,3.0,6.0,56,0.00,,,0.00,meteohub,2013-09-14 16:19:00,
2013-09-14 11:24:00,66.9,49.8,29.99,NNW,336,0.0,5.0,54,0.00,,,0.00,meteohub,2013-09-14 16:24:00,
2013-09-14 11:29:00,67.5,49.8,29.99,WSW,252,2.0,7.0,53,0.00,,,0.00,meteohub,2013-09-14 16:29:00,
2013-09-14 11:34:00,68.0,50.2,29.99,WSW,242,0.0,7.0,53,0.00,,,0.00,meteohub,2013-09-14 16:34:00,
2013-09-14 11:39:00,68.4,49.5,29.99,West,263,3.0,7.0,51,0.00,,,0.00,meteohub,2013-09-14 16:39:00,
2013-09-14 11:44:00,68.5,49.6,29.99,West,277,1.0,7.0,51,0.00,,,0.00,meteohub,2013-09-14 16:44:00,
2013-09-14 11:49:00,68.7,49.8,29.99,West,274,2.0,12.0,51,0.00,,,0.00,meteohub,2013-09-14 16:49:00,
2013-09-14 11:54:00,69.1,50.2,29.98,WSW,254,3.0,12.0,51,0.00,,,0.00,meteohub,2013-09-14 16:54:00,
2013-09-14 11:59:00,69.4,50.5,29.98,NE,40,0.0,11.0,51,0.00,,,0.00,meteohub,2013-09-14 16:59:00,
2013-09-14 12:04:00,69.8,50.4,29.98,WSW,257,0.0,7.0,50,0.00,,,0.00,meteohub,2013-09-14 17:04:00,
2013-09-14 12:09:00,70.2,50.2,29.98,WSW,250,2.0,7.0,49,0.00,,,0.00,meteohub,2013-09-14 17:09:00,
2013-09-14 12:14:00,70.3,50.4,29.97,West,259,0.0,7.0,49,0.00,,,0.00,meteohub,2013-09-14 17:14:00,
2013-09-14 12:19:00,70.5,50.9,29.97,WSW,251,0.0,6.0,50,0.00,,,0.00,meteohub,2013-09-14 17:19:00,
2013-09-14 12:24:00,70.9,50.7,29.97,WSW,254,0.0,6.0,49,0.00,,,0.00,meteohub,2013-09-14 17:24:00,
2013-09-14 12:29:00,71.1,50.9,29.97,WSW,239,0.0,7.0,49,0.00,,,0.00,meteohub,2013-09-14 17:29:00,
2013-09-14 12:35:00,71.2,50.5,29.97,WSW,257,0.0,7.0,48,0.00,,,0.00,meteohub,2013-09-14 17:35:00,
2013-09-14 12:40:00,71.2,51.1,29.96,WSW,254,0.0,7.0,49,0.00,,,0.00,meteohub,2013-09-14 17:40:00,
2013-09-14 12:45:00,71.4,50.2,29.96,WSW,240,5.0,6.0,47,0.00,,,0.00,meteohub,2013-09-14 17:45:00,
2013-09-14 12:50:00,71.4,50.7,29.96,West,272,1.0,5.0,48,0.00,,,0.00,meteohub,2013-09-14 17:50:00,
2013-09-14 12:55:00,71.6,51.4,29.96,West,268,5.0,5.0,49,0.00,,,0.00,meteohub,2013-09-14 17:55:00,
2013-09-14 13:00:00,71.8,51.1,29.95,WSW,253,4.0,10.0,48,0.00,,,0.00,meteohub,2013-09-14 18:00:00,
2013-09-14 13:05:00,71.8,51.1,29.95,WSW,245,0.0,10.0,48,0.00,,,0.00,meteohub,2013-09-14 18:05:00,
2013-09-14 13:10:00,71.8,51.1,29.95,WSW,252,0.0,10.0,48,0.00,,,0.00,meteohub,2013-09-14 18:10:00,
2013-09-14 13:15:00,72.0,51.3,29.95,WSW,248,0.0,9.0,48,0.00,,,0.00,meteohub,2013-09-14 18:15:00,
2013-09-14 13:20:00,72.0,51.3,29.95,WSW,257,0.0,9.0,48,0.00,,,0.00,meteohub,2013-09-14 18:20:00,
2013-09-14 13:25:00,72.0,51.3,29.95,SW,232,0.0,9.0,48,0.00,,,0.00,meteohub,2013-09-14 18:25:00,
2013-09-14 13:30:00,72.0,50.7,29.95,SW,236,3.0,9.0,47,0.00,,,0.00,meteohub,2013-09-14 18:30:00,
2013-09-14 13:35:00,72.0,51.8,29.95,WSW,241,0.0,9.0,49,0.00,,,0.00,meteohub,2013-09-14 18:35:00,
2013-09-14 13:40:00,72.0,51.3,29.94,WSW,242,2.0,9.0,48,0.00,,,0.00,meteohub,2013-09-14 18:40:00,
2013-09-14 13:45:00,72.1,51.4,29.94,WSW,247,0.0,6.0,48,0.00,,,0.00,meteohub,2013-09-14 18:45:00,
2013-09-14 13:50:00,72.1,51.4,29.94,West,265,0.0,6.0,48,0.00,,,0.00,meteohub,2013-09-14 18:50:00,
2013-09-14 13:56:00,72.3,52.2,29.94,WSW,252,0.0,6.0,49,0.00,,,0.00,meteohub,2013-09-14 18:56:00,
2013-09-14 14:01:00,72.3,50.9,29.94,North,11,0.0,5.0,47,0.00,,,0.00,meteohub,2013-09-14 19:01:00,
2013-09-14 14:06:00,72.1,50.7,29.94,WSW,244,0.0,7.0,47,0.00,,,0.00,meteohub,2013-09-14 19:06:00,
2013-09-14 14:11:00,72.1,50.7,29.94,WSW,254,0.0,7.0,47,0.00,,,0.00,meteohub,2013-09-14 19:11:00,
2013-09-14 14:16:00,72.0,50.7,29.94,WSW,254,0.0,8.0,47,0.00,,,0.00,meteohub,2013-09-14 19:16:00,
2013-09-14 14:21:00,72.0,50.7,29.93,WSW,250,0.0,8.0,47,0.00,,,0.00,meteohub,2013-09-14 19:21:00,
2013-09-14 14:26:00,72.0,50.7,29.93,SW,225,4.0,8.0,47,0.00,,,0.00,meteohub,2013-09-14 19:26:00,
2013-09-14 14:31:00,72.0,51.3,29.93,North,5,0.0,6.0,48,0.00,,,0.00,meteohub,2013-09-14 19:31:00,
2013-09-14 14:36:00,72.0,51.3,29.93,WSW,249,4.0,6.0,48,0.00,,,0.00,meteohub,2013-09-14 19:36:00,
2013-09-14 14:41:00,72.0,51.3,29.92,WSW,248,0.0,6.0,48,0.00,,,0.00,meteohub,2013-09-14 19:41:00,
2013-09-14 14:46:00,72.0,51.3,29.92,WSW,246,1.0,6.0,48,0.00,,,0.00,meteohub,2013-09-14 19:46:00,
2013-09-14 14:51:00,72.0,51.3,29.92,West,271,2.0,9.0,48,0.00,,,0.00,meteohub,2013-09-14 19:51:00,
2013-09-14 14:56:00,72.0,51.3,29.92,WSW,257,2.0,9.0,48,0.00,,,0.00,meteohub,2013-09-14 19:56:00,
2013-09-14 15:02:00,72.0,51.3,29.92,West,265,1.0,8.0,48,0.00,,,0.00,meteohub,2013-09-14 20:02:00,
2013-09-14 15:07:00,72.0,50.7,29.92,WSW,253,0.0,8.0,47,0.00,,,0.00,meteohub,2013-09-14 20:07:00,
2013-09-14 15:12:00,72.0,50.7,29.92,WSW,254,0.0,5.0,47,0.00,,,0.00,meteohub,2013-09-14 20:12:00,
2013-09-14 15:17:00,72.0,50.0,29.92,West,273,0.0,11.0,46,0.00,,,0.00,meteohub,2013-09-14 20:17:00,
2013-09-14 15:22:00,71.8,50.5,29.92,WSW,249,0.0,11.0,47,0.00,,,0.00,meteohub,2013-09-14 20:22:00,
2013-09-14 15:27:00,71.8,50.5,29.91,West,264,0.0,11.0,47,0.00,,,0.00,meteohub,2013-09-14 20:27:00,
2013-09-14 15:32:00,71.6,50.4,29.91,West,263,0.0,9.0,47,0.00,,,0.00,meteohub,2013-09-14 20:32:00,
2013-09-14 15:37:00,71.4,50.7,29.91,WSW,252,0.0,9.0,48,0.00,,,0.00,meteohub,2013-09-14 20:37:00,
2013-09-14 15:42:00,71.4,51.3,29.92,WSW,257,0.0,3.0,49,0.00,,,0.00,meteohub,2013-09-14 20:42:00,
2013-09-14 15:47:00,71.2,51.1,29.91,WSW,257,0.0,2.0,49,0.00,,,0.00,meteohub,2013-09-14 20:47:00,
2013-09-14 15:52:00,71.2,51.1,29.92,WSW,248,0.0,2.0,49,0.00,,,0.00,meteohub,2013-09-14 20:52:00,
2013-09-14 15:57:00,71.1,50.9,29.91,WSW,254,0.0,4.0,49,0.00,,,0.00,meteohub,2013-09-14 20:57:00,
2013-09-14 16:02:00,71.1,51.4,29.91,WSW,252,0.0,4.0,50,0.00,,,0.00,meteohub,2013-09-14 21:02:00,
2013-09-14 16:07:00,70.9,50.7,29.91,WSW,250,0.0,5.0,49,0.00,,,0.00,meteohub,2013-09-14 21:07:00,
2013-09-14 16:12:00,70.5,50.9,29.91,WSW,250,0.0,5.0,50,0.00,,,0.00,meteohub,2013-09-14 21:12:00,
2013-09-14 16:17:00,70.5,50.9,29.91,WSW,243,0.0,5.0,50,0.00,,,0.00,meteohub,2013-09-14 21:17:00,
2013-09-14 16:22:00,70.3,50.9,29.90,WSW,254,0.0,5.0,50,0.00,,,0.00,meteohub,2013-09-14 21:22:00,
2013-09-14 16:27:00,70.3,51.4,29.90,WSW,249,0.0,5.0,51,0.00,,,0.00,meteohub,2013-09-14 21:27:00,
2013-09-14 16:32:00,70.2,51.3,29.90,WSW,249,0.0,5.0,51,0.00,,,0.00,meteohub,2013-09-14 21:32:00,
2013-09-14 16:37:00,70.2,51.3,29.90,WSW,248,0.0,3.0,51,0.00,,,0.00,meteohub,2013-09-14 21:37:00,
2013-09-14 16:42:00,70.2,51.8,29.90,WSW,248,0.0,3.0,52,0.00,,,0.00,meteohub,2013-09-14 21:42:00,
2013-09-14 16:48:00,70.2,52.2,29.90,WSW,248,0.0,0.0,53,0.00,,,0.00,meteohub,2013-09-14 21:48:00,
2013-09-14 16:53:00,70.0,52.0,29.90,WSW,248,0.0,0.0,53,0.00,,,0.00,meteohub,2013-09-14 21:53:00,
2013-09-14 16:58:00,70.0,52.0,29.90,WSW,248,0.0,0.0,53,0.00,,,0.00,meteohub,2013-09-14 21:58:00,
2013-09-14 17:03:00,70.0,52.5,29.90,WSW,248,0.0,1.0,54,0.00,,,0.00,meteohub,2013-09-14 22:03:00,
2013-09-14 17:08:00,69.8,52.3,29.90,WSW,248,0.0,1.0,54,0.00,,,0.00,meteohub,2013-09-14 22:08:00,
2013-09-14 17:13:00,69.6,53.2,29.89,WSW,248,0.0,1.0,56,0.00,,,0.00,meteohub,2013-09-14 22:13:00,
2013-09-14 17:18:00,69.6,53.2,29.90,WSW,248,0.0,0.0,56,0.00,,,0.00,meteohub,2013-09-14 22:18:00,
2013-09-14 17:23:00,69.4,53.6,29.89,WSW,248,0.0,0.0,57,0.00,,,0.00,meteohub,2013-09-14 22:23:00,
2013-09-14 17:28:00,69.3,53.8,29.89,WSW,242,0.0,0.0,58,0.00,,,0.00,meteohub,2013-09-14 22:28:00,
2013-09-14 17:33:00,69.1,54.7,29.89,WSW,242,0.0,0.0,60,0.00,,,0.00,meteohub,2013-09-14 22:33:00,
2013-09-14 17:38:00,68.5,55.0,29.89,WSW,242,0.0,0.0,62,0.01,,,0.01,meteohub,2013-09-14 22:38:00,
2013-09-14 17:43:00,68.2,55.0,29.88,WSW,243,0.0,3.0,63,0.02,,,0.02,meteohub,2013-09-14 22:43:00,
2013-09-14 17:49:00,67.6,55.4,29.89,WSW,242,0.0,3.0,65,0.03,,,0.03,meteohub,2013-09-14 22:49:00,
2013-09-14 17:54:00,67.3,55.6,29.90,WSW,242,0.0,3.0,66,0.03,,,0.03,meteohub,2013-09-14 22:54:00,
2013-09-14 17:59:00,66.7,55.8,29.89,WSW,243,0.0,0.0,68,0.04,,,0.04,meteohub,2013-09-14 22:59:00,
2013-09-14 18:04:00,66.0,55.9,29.88,WSW,242,0.0,0.0,70,0.04,,,0.04,meteohub,2013-09-14 23:04:00,
2013-09-14 18:09:00,65.5,55.8,29.88,WSW,242,0.0,0.0,71,0.06,,,0.06,meteohub,2013-09-14 23:09:00,
2013-09-14 18:14:00,64.9,55.8,29.88,WSW,242,0.0,0.0,72,0.07,,,0.07,meteohub,2013-09-14 23:14:00,
2013-09-14 18:19:00,64.6,55.4,29.87,WSW,243,0.0,0.0,72,0.07,,,0.07,meteohub,2013-09-14 23:19:00,
2013-09-14 18:24:00,64.0,55.6,29.88,WSW,242,0.0,0.0,74,0.07,,,0.07,meteohub,2013-09-14 23:24:00,
2013-09-14 18:29:00,63.9,55.4,29.87,WSW,243,0.0,0.0,74,0.08,,,0.08,meteohub,2013-09-14 23:29:00,
2013-09-14 18:34:00,63.3,55.2,29.88,WSW,243,0.0,0.0,75,0.08,,,0.08,meteohub,2013-09-14 23:34:00,
2013-09-14 18:39:00,63.1,55.4,29.89,WSW,243,0.0,0.0,76,0.07,,,0.08,meteohub,2013-09-14 23:39:00,
2013-09-14 18:44:00,62.8,55.4,29.89,WSW,243,0.0,0.0,77,0.06,,,0.08,meteohub,2013-09-14 23:44:00,
2013-09-14 18:49:00,62.6,55.2,29.89,WSW,242,0.0,0.0,77,0.05,,,0.08,meteohub,2013-09-14 23:49:00,
2013-09-14 18:55:00,62.2,55.2,29.89,WSW,242,0.0,0.0,78,0.07,,,0.10,meteohub,2013-09-14 23:55:00,
2013-09-14 19:00:00,62.1,55.4,29.88,WSW,242,0.0,0.0,79,0.08,,,0.13,meteohub,2013-09-15 00:00:00,
2013-09-14 19:05:00,61.9,55.2,29.88,WSW,242,0.0,0.0,79,0.07,,,0.00,meteohub,2013-09-15 00:05:00,
2013-09-14 19:10:00,61.5,54.9,29.88,WSW,242,0.0,0.0,79,0.06,,,0.00,meteohub,2013-09-15 00:10:00,
2013-09-14 19:15:00,61.3,55.0,29.89,WSW,243,0.0,0.0,80,0.06,,,0.00,meteohub,2013-09-15 00:15:00,
2013-09-14 19:20:00,61.2,55.2,29.90,WSW,243,0.0,0.0,81,0.05,,,0.00,meteohub,2013-09-15 00:20:00,
2013-09-14 19:25:00,61.2,55.6,29.90,WSW,243,0.0,0.0,82,0.05,,,0.00,meteohub,2013-09-15 00:25:00,
2013-09-14 19:30:00,61.0,55.4,29.90,WSW,242,0.0,0.0,82,0.05,,,0.00,meteohub,2013-09-15 00:30:00,
2013-09-14 19:35:00,60.8,55.2,29.90,WSW,245,0.0,0.0,82,0.06,,,0.01,meteohub,2013-09-15 00:35:00,
2013-09-14 19:40:00,60.6,55.4,29.91,WSW,245,0.0,0.0,83,0.07,,,0.02,meteohub,2013-09-15 00:40:00,
2013-09-14 19:45:00,60.6,55.8,29.91,WSW,245,0.0,0.0,84,0.07,,,0.02,meteohub,2013-09-15 00:45:00,
2013-09-14 19:50:00,60.6,55.8,29.92,WSW,245,0.0,0.0,84,0.04,,,0.02,meteohub,2013-09-15 00:50:00,
2013-09-14 19:56:00,60.4,55.6,29.92,WSW,245,0.0,0.0,84,0.03,,,0.03,meteohub,2013-09-15 00:56:00,
2013-09-14 20:01:00,60.4,55.9,29.92,WSW,245,0.0,0.0,85,0.05,,,0.05,meteohub,2013-09-15 01:01:00,
2013-09-14 20:06:00,60.3,55.8,29.92,WSW,245,0.0,0.0,85,0.07,,,0.07,meteohub,2013-09-15 01:06:00,
2013-09-14 20:11:00,60.1,55.6,29.91,WSW,245,0.0,0.0,85,0.10,,,0.10,meteohub,2013-09-15 01:11:00,
2013-09-14 20:16:00,60.1,55.6,29.92,WSW,245,0.0,0.0,85,0.13,,,0.13,meteohub,2013-09-15 01:16:00,
2013-09-14 20:21:00,59.9,55.4,29.92,WSW,245,0.0,0.0,85,0.17,,,0.17,meteohub,2013-09-15 01:21:00,
2013-09-14 20:26:00,59.7,55.6,29.92,WSW,245,0.0,0.0,86,0.19,,,0.19,meteohub,2013-09-15 01:26:00,
2013-09-14 20:31:00,59.7,55.6,29.91,WSW,245,0.0,0.0,86,0.21,,,0.22,meteohub,2013-09-15 01:31:00,
2013-09-14 20:36:00,59.5,55.4,29.92,WSW,245,0.0,0.0,86,0.24,,,0.25,meteohub,2013-09-15 01:36:00,
2013-09-14 20:41:00,59.5,55.4,29.92,WSW,245,0.0,0.0,86,0.25,,,0.27,meteohub,2013-09-15 01:41:00,
2013-09-14 20:46:00,59.4,55.2,29.93,WSW,245,0.0,0.0,86,0.29,,,0.31,meteohub,2013-09-15 01:46:00,
2013-09-14 20:51:00,59.2,55.0,29.93,WSW,245,0.0,0.0,86,0.30,,,0.33,meteohub,2013-09-15 01:51:00,
2013-09-14 20:57:00,59.2,55.0,29.93,WSW,245,0.0,0.0,86,0.30,,,0.34,meteohub,2013-09-15 01:57:00,
2013-09-14 21:02:00,59.0,54.9,29.93,WSW,245,0.0,0.0,86,0.29,,,0.35,meteohub,2013-09-15 02:02:00,
2013-09-14 21:07:00,59.0,55.2,29.93,WSW,245,0.0,0.0,87,0.30,,,0.36,meteohub,2013-09-15 02:07:00,
2013-09-14 21:12:00,59.0,55.2,29.92,WSW,245,0.0,0.0,87,0.28,,,0.38,meteohub,2013-09-15 02:12:00,
2013-09-14 21:17:00,58.8,55.0,29.93,WSW,245,0.0,0.0,87,0.25,,,0.40,meteohub,2013-09-15 02:17:00,
2013-09-14 21:22:00,58.6,54.9,29.92,WSW,245,0.0,0.0,87,0.22,,,0.40,meteohub,2013-09-15 02:22:00,
2013-09-14 21:27:00,58.5,54.7,29.92,WSW,246,0.0,0.0,87,0.21,,,0.41,meteohub,2013-09-15 02:27:00,
2013-09-14 21:32:00,58.5,54.7,29.92,WSW,246,0.0,0.0,87,0.19,,,0.42,meteohub,2013-09-15 02:32:00,
2013-09-14 21:37:00,58.3,54.5,29.92,WSW,246,0.0,0.0,87,0.16,,,0.42,meteohub,2013-09-15 02:37:00,
2013-09-14 21:42:00,58.3,54.5,29.92,WSW,258,0.0,1.0,87,0.14,,,0.42,meteohub,2013-09-15 02:42:00,
2013-09-14 21:47:00,58.1,54.3,29.92,WSW,257,0.0,1.0,87,0.11,,,0.42,meteohub,2013-09-15 02:47:00,
2013-09-14 21:52:00,57.9,54.3,29.91,WSW,257,0.0,1.0,88,0.08,,,0.42,meteohub,2013-09-15 02:52:00,
2013-09-14 21:57:00,57.7,54.1,29.91,WSW,257,0.0,0.0,88,0.08,,,0.42,meteohub,2013-09-15 02:57:00,
2013-09-14 22:02:00,57.7,54.1,29.91,WSW,257,0.0,1.0,88,0.08,,,0.43,meteohub,2013-09-15 03:02:00,
2013-09-14 22:07:00,57.6,54.0,29.91,WSW,258,0.0,1.0,88,0.07,,,0.44,meteohub,2013-09-15 03:07:00,
2013-09-14 22:12:00,57.6,54.0,29.91,WSW,257,0.0,1.0,88,0.05,,,0.44,meteohub,2013-09-15 03:12:00,
2013-09-14 22:18:00,57.6,54.0,29.90,WSW,258,0.0,0.0,88,0.04,,,0.44,meteohub,2013-09-15 03:18:00,
2013-09-14 22:23:00,57.4,53.8,29.90,WSW,258,0.0,1.0,88,0.03,,,0.44,meteohub,2013-09-15 03:23:00,
2013-09-14 22:28:00,57.4,53.8,29.90,WSW,258,0.0,1.0,88,0.03,,,0.44,meteohub,2013-09-15 03:28:00,
2013-09-14 22:33:00,57.4,53.8,29.90,WSW,258,0.0,1.0,88,0.02,,,0.44,meteohub,2013-09-15 03:33:00,
2013-09-14 22:38:00,57.4,54.1,29.90,WSW,258,0.0,1.0,89,0.02,,,0.44,meteohub,2013-09-15 03:38:00,
2013-09-14 22:43:00,57.2,53.6,29.90,WSW,258,0.0,1.0,88,0.02,,,0.44,meteohub,2013-09-15 03:43:00,
2013-09-14 22:48:00,57.2,54.0,29.90,WSW,257,0.0,1.0,89,0.03,,,0.45,meteohub,2013-09-15 03:48:00,
2013-09-14 22:53:00,57.0,53.8,29.90,WSW,258,0.0,1.0,89,0.03,,,0.45,meteohub,2013-09-15 03:53:00,
2013-09-14 22:58:00,57.0,53.8,29.89,WSW,258,0.0,1.0,89,0.02,,,0.45,meteohub,2013-09-15 03:58:00,
2013-09-14 23:01:00,56.8,53.6,29.89,WSW,258,0.0,1.0,89,0.02,,,0.45,meteohub,2013-09-15 04:01:00,
2013-09-14 23:03:00,56.8,53.6,29.89,WSW,258,0.0,1.0,89,0.02,,,0.45,meteohub,2013-09-15 04:03:00,
2013-09-14 23:04:00,56.8,53.6,29.89,WSW,258,0.0,1.0,89,0.02,,,0.45,meteohub,2013-09-15 04:04:00,
2013-09-14 23:05:00,56.8,53.6,29.89,WSW,258,0.0,1.0,89,0.01,,,0.45,meteohub,2013-09-15 04:05:00,
2013-09-14 23:06:00,56.8,53.6,29.89,WSW,258,0.0,1.0,89,0.01,,,0.45,meteohub,2013-09-15 04:06:00,
2013-09-14 23:12:00,56.8,53.6,29.88,WSW,257,0.0,0.0,89,0.01,,,0.45,meteohub,2013-09-15 04:12:00,
2013-09-14 23:17:00,56.8,53.6,29.88,WSW,258,0.0,0.0,89,0.01,,,0.45,meteohub,2013-09-15 04:17:00,
2013-09-14 23:22:00,56.8,53.6,29.88,West,259,0.0,1.0,89,0.01,,,0.45,meteohub,2013-09-15 04:22:00,
2013-09-14 23:27:00,56.8,54.5,29.88,West,259,0.0,1.0,92,0.01,,,0.45,meteohub,2013-09-15 04:27:00,
2013-09-14 23:32:00,56.8,54.0,29.88,West,259,0.0,2.0,90,0.01,,,0.45,meteohub,2013-09-15 04:32:00,
2013-09-14 23:37:00,56.8,54.0,29.88,West,259,0.0,2.0,90,0.01,,,0.45,meteohub,2013-09-15 04:37:00,
2013-09-14 23:42:00,56.8,54.0,29.88,West,259,0.0,2.0,90,0.01,,,0.45,meteohub,2013-09-15 04:42:00,
2013-09-14 23:47:00,56.8,54.0,29.88,West,259,0.0,1.0,90,0.00,,,0.45,meteohub,2013-09-15 04:47:00,
2013-09-14 23:52:00,56.8,54.0,29.88,West,259,0.0,1.0,90,0.00,,,0.45,meteohub,2013-09-15 04:52:00,
2013-09-14 23:57:00,56.8,54.0,29.88,West,259,0.0,1.0,90,0.00,,,0.45,meteohub,2013-09-15 04:57:00,